Weather History for KMQY - October, 2012

Change the Weather History Date:

Friday, October 19, 2012

  Actual Average Record
Temperature  
Mean Temperature 56 °F -  
Max Temperature 65 °F 67 °F 93 °F (2005)
Min Temperature 48 °F 49 °F 36 °F (2008)
Degree Days  
Heating Degree Days 9    
Growing Degree Days 6 (Base 50)    
Moisture  
Dew Point 41 °F    
Average Humidity 56    
Maximum Humidity 74    
Minimum Humidity 37    
Precipitation  
Precipitation 0.00 in - - ()
Sea Level Pressure  
Sea Level Pressure 29.76 in    
Wind  
Wind Speed 8 mph (WSW)    
Max Wind Speed 16 mph    
Max Gust Speed 23 mph    
Visibility 10 miles    
Events      
Averages and records for this station are not official NWS values.
T = Trace of Precipitation, MM = Missing Value Source: NWS Daily Summary

Daily Weather History Graph

Daily Weather History Graph

Search for Another Location

Airport or City:

Trip Planner

Search our weather history database for the weather conditions in past years. The results will help you decide how hot, cold, wet, or windy it might be!

Date:

Astronomy

Oct. 19, 2012 Rise Set
Actual Time 6:56 AM CDT 6:04 PM CDT
Civil Twilight 6:30 AM CDT 6:30 PM CDT
Nautical Twilight 6:01 AM CDT 7:00 PM CDT
Astronomical Twilight 5:31 AM CDT 7:29 PM CDT
Moon 11:32 AM CDT (10/19) 9:48 PM CDT (10/19)
Length of Visible Light 11h 59m
Length of Day
11h 07m
Waxing Crescent, 24% of the Moon is Illuminated
Oct 19
Waxing Crescent
Oct 21
First Quarter
Oct 29
Full
Nov 6
Last Quarter
Nov 13
New

Hourly Weather History & Observations

Time (CDT) Temp. Dew Point Humidity Pressure Visibility Wind Dir Wind Speed Gust Speed Precip Events Conditions
12:56 AM 50.9 °F 41.0 °F 69% 29.76 in 10.0 mi SSW 5.8 mph - N/A   Clear
1:56 AM 50.9 °F 41.9 °F 71% 29.75 in 10.0 mi SSW 6.9 mph - N/A   Clear
2:56 AM 50.0 °F 41.9 °F 74% 29.74 in 10.0 mi SSW 5.8 mph - N/A   Clear
3:56 AM 50.0 °F 41.9 °F 74% 29.72 in 10.0 mi SW 6.9 mph - N/A   Clear
4:56 AM 50.0 °F 41.9 °F 74% 29.71 in 10.0 mi SSW 6.9 mph - N/A   Clear
5:56 AM 50.0 °F 41.0 °F 71% 29.72 in 10.0 mi SSW 9.2 mph - N/A   Clear
6:56 AM 48.9 °F 41.0 °F 74% 29.73 in 10.0 mi South 8.1 mph - N/A   Clear
7:56 AM 50.9 °F 41.0 °F 69% 29.73 in 10.0 mi Calm Calm - N/A   Clear
8:56 AM 55.9 °F 41.9 °F 59% 29.73 in 10.0 mi SSW 3.5 mph - N/A   Clear
9:56 AM 59.9 °F 38.8 °F 46% 29.73 in 10.0 mi WSW 9.2 mph - N/A   Clear
10:56 AM 63.0 °F 39.9 °F 43% 29.74 in 10.0 mi West 15.0 mph 23.0 mph N/A   Partly Cloudy
11:56 AM 63.0 °F 38.8 °F 41% 29.73 in 10.0 mi West 16.1 mph - N/A   Clear
12:56 PM 64.9 °F 38.8 °F 38% 29.71 in 10.0 mi West 15.0 mph - N/A   Clear
1:56 PM 63.9 °F 37.9 °F 38% 29.70 in 5.0 mi West 12.7 mph 21.9 mph N/A   Haze
2:56 PM 63.9 °F 36.9 °F 37% 29.71 in 10.0 mi West 12.7 mph - N/A   Mostly Cloudy
3:56 PM 63.0 °F 38.8 °F 41% 29.72 in 10.0 mi WNW 10.4 mph - N/A   Overcast
4:56 PM 61.0 °F 39.9 °F 46% 29.74 in 5.0 mi West 6.9 mph - N/A   Haze
5:56 PM 61.0 °F 39.9 °F 46% 29.77 in 10.0 mi West 8.1 mph - N/A   Haze
6:56 PM 59.0 °F 41.9 °F 53% 29.81 in 10.0 mi NNW 10.4 mph - N/A   Haze
7:56 PM 57.9 °F 41.0 °F 53% 29.82 in 10.0 mi NW 8.1 mph - N/A   Overcast
8:56 PM 56.8 °F 41.0 °F 55% 29.83 in 10.0 mi West 11.5 mph - N/A   Overcast
9:56 PM 56.8 °F 41.0 °F 55% 29.84 in 10.0 mi WNW 8.1 mph - N/A   Overcast
10:56 PM 54.9 °F 43.0 °F 64% 29.85 in 10.0 mi Calm Calm - N/A   Overcast
11:56 PM 54.9 °F 43.0 °F 64% 29.84 in 10.0 mi Calm Calm - N/A   Overcast